Location: Newark
(49.2191°N, 12.6671°E)
Time: 03:58:17
(UTC+00:00)

Transit 4A - Pass Details

Date: 25 January 2020
Orbit: 872 x 973 km, 66.8° (Epoch: 19 February)

Event Time Altitude Azimuth Distance (km) Brightness Sun altitude
Rises 15:03:18 0° 319° (NW) 3,472 10.9 6.0°
Reaches altitude 10° 15:05:56 10° 312° (NW) 2,529 10.4 5.6°
Maximum altitude 15:11:15 38° 246° (WSW) 1,313 9.8 4.9°
Drops below altitude 10° 15:16:35 10° 180° (S) 2,535 10.8 4.2°
Sets 15:19:14 0° 173° (S) 3,481 11.3 3.9°
